SCOUT A R/B, 2120

Orbit data source: Space-Track

SCOUT A R/B, 2120 is space debris in LEO originally from a launch on Sat, 26 Mar 1966 UTC launched from the Air Force Western Test Range (AFWTR). Debris objects in space refer to the collection of defunct objects orbiting the Earth. Examples of debris include non-operational satellites, rocket bodies, and fragments generated from explosions, collisions, or faulty payload assembly.

Loading next visibility...
SCOUT A R/B details
Identifier
2120, 1966-024B
Orbit
LEO
Last TLE update17 hours ago
Origin
Flag of USNASA LaRC (US)
ManufacturerABL
MissionSpacecraft
Bus & MotorALTAIR, Unknown motor
Mass33 kg wet, 33 kg dry
Launch date (UTC)
1966-03-26 (59 years ago)
Launch vehicleUnknown
Launch site
Air Force Western Test Range (AFWTR)
Object type
Payload
Rocket body
Debris
Shape & HBRCyl, 1.5 m
Radar Cross Section0.687 m², Medium (>0.1 m² and < 1m²)

Expand to show TLE details & history

TLE from 17 hours ago
0 SCOUT A R/B
1 02120U 66024B   25043.93813017  .00000197  00000-0  18989-3 0  9994
2 02120  89.8201 181.0959 0150258 245.3707 113.1743 13.72501713944802
Epoch: 2025-02-12T22:30Z
Definitive object data (Epoch: 2025-02-12T22:30:54.446Z)
Latitude0.00002°
Longitude60.14762°
Altitude1,038.564 km
Speed7.31 km/s
True Right ascension12h 04m 23s
True Declination0° 00' 00"
Sunlit
Object was in full shadow at TLE epoch
Visualization TLE readout
Latitude-49.43927°
Longitude59.92497°
Altitude966.23 km
Speed7.389 km/s
Apparent Right ascension09h 10m 01s
Apparent Declination-53° 32' 47"
Sunlit
Object is in daylight
Visualization observer readout
Local Sidereal Time18:21:35
Azimuth230.021° WSW
Elevation-58.671°
Doppler factor1
Orbital elements
Apogee altitude1,098.296 km
Perigee altitude876.943 km
Semi-major axis7,365.756 km
Eccentricity0.0150258
Inclination89.8201°
RAAN181.0959°
Arg. of periapsis245.3707°
True anomaly114.74538°
Mean anomaly113.1743°
Eccentric anomaly113.96102°
Mean motion3.43334 °/min
BSTAR0.00018989
Orbital period104.85 mins
Loading maneuver chart data...
Loading historical data...
Loading historical data...
Loading historical data...
Loading historical data...
Loading historical data...
Loading historical data...
Loading historical data...

SCOUT A R/B Visibility forecast

Observer location: undefined°, undefined

Span
Click to sort rows by Start time (UTC) header in descending order
Start Az.
Max El. time (UTC)
Max El. Az.
Max El.
End time (UTC)
End Az.
9 mins2025-02-13 20:07:20.501Z30.068° NE2025-02-13 20:12:20.501Z82.389° E21.395°2025-02-13 20:16:20.501Z126.339° SE
10 mins2025-02-13 21:52:20.501Z348.685° N2025-02-13 21:57:20.501Z275.626° WNW38.592°2025-02-13 22:02:20.501Z206.118° SW
7 mins2025-02-14 07:55:20.501Z103.717° ESE2025-02-14 07:58:20.501Z72.507° E18.628°2025-02-14 08:02:20.501Z33.436° NE
11 mins2025-02-14 09:37:20.501Z188.577° SSW2025-02-14 09:42:20.501Z265.976° W43.223°2025-02-14 09:48:20.501Z352.198° N
|